Zadar, Croatia

5:40 PM CEST on July 23, 2018 (GMT +0200)
Zemunik

Weather History for LDZD - April, 2018

Change the Weather History Date:

Monday, April 16, 2018

  Actual Average Record
Temperature  
Mean Temperature 64 °F -  
Max Temperature 72 °F - - ()
Min Temperature 55 °F - - ()
Degree Days  
Heating Degree Days 2    
Growing Degree Days 14 (Base 50)    
Moisture  
Dew Point 56 °F    
Average Humidity 75    
Maximum Humidity 94    
Minimum Humidity 48    
Precipitation  
Precipitation 0.08 in - - ()
Sea Level Pressure  
Sea Level Pressure 29.82 in    
Wind  
Wind Speed 9 mph ()    
Max Wind Speed 22 mph    
Max Gust Speed -    
Visibility 6.5 miles    
Events Rain    
T = Trace of Precipitation, MM = Missing Value Source: Averaged Metar Reports

Daily Weather History Graph

Daily Weather History Graph

Search for Another Location

Airport or City:

Astronomy

Apr. 16, 2018 Rise Set
Actual Time 6:13 AM CEST 7:43 PM CEST
Civil Twilight 5:43 AM CEST 8:13 PM CEST
Nautical Twilight 5:07 AM CEST 8:50 PM CEST
Astronomical Twilight 4:28 AM CEST 9:29 PM CEST
Moon 6:48 AM CEST (4/16) 8:12 PM CEST (4/16)
Length of Visible Light 14h 30m
Length of Day
13h 29m
New Moon, 0% of the Moon is Illuminated
Apr 16
New Moon
Apr 22
First Quarter
Apr 30
Full
May 8
Last Quarter
May 15
New

Hourly Weather History & Observations

Time (CEST) Temp. Dew Point Humidity Pressure Visibility Wind Dir Wind Speed Gust Speed Precip Events Conditions
12:00 AM 60.8 °F 55.4 °F 82% 29.77 in 6.2 mi North 5.8 mph - N/A   Partly Cloudy
12:30 AM 60.8 °F 55.4 °F 82% 29.77 in 6.2 mi NE 10.4 mph - N/A   Partly Cloudy
1:00 AM 60.8 °F 55.4 °F 82% 29.77 in 6.2 mi NE 9.2 mph - N/A   Partly Cloudy
1:30 AM 62.6 °F 53.6 °F 72% 29.77 in 6.2 mi NE 6.9 mph - N/A   Partly Cloudy
2:00 AM 63 °F 54 °F 64% 29.76 in 12 mi NE 8.9 mph - -   Scattered Clouds
2:00 AM 62.6 °F 53.6 °F 72% 29.74 in 6.2 mi NE 9.2 mph - N/A   Partly Cloudy
2:30 AM 64.4 °F 53.6 °F 68% 29.74 in 6.2 mi ENE 8.1 mph - N/A   Partly Cloudy
3:00 AM 66.2 °F 51.8 °F 60% 29.74 in 6.2 mi East 8.1 mph - N/A   Partly Cloudy
3:30 AM 64.4 °F 53.6 °F 68% 29.74 in 6.2 mi East 5.8 mph - N/A   Partly Cloudy
4:00 AM 62.6 °F 53.6 °F 72% 29.74 in 6.2 mi SW 4.6 mph - N/A   Partly Cloudy
4:30 AM 60.8 °F 53.6 °F 77% 29.74 in 6.2 mi Variable 2.3 mph - N/A   Partly Cloudy
5:00 AM 59 °F 54 °F 79% 29.75 in 9 mi Calm Calm - -   Partly Cloudy
5:00 AM 59.0 °F 53.6 °F 82% 29.74 in 6.2 mi Calm Calm - N/A   Partly Cloudy
5:30 AM 57.2 °F 53.6 °F 88% 29.74 in 6.2 mi Calm Calm - N/A   Partly Cloudy
6:00 AM 55.4 °F 53.6 °F 94% 29.74 in 6.2 mi Variable 2.3 mph - N/A   Partly Cloudy
6:30 AM 55.4 °F 53.6 °F 94% 29.74 in - ENE 1.2 mph - N/A   Clear
7:00 AM 55.4 °F 53.6 °F 94% 29.77 in - SE 3.5 mph - N/A   Clear
7:30 AM 57.2 °F 53.6 °F 88% 29.77 in - SE 6.9 mph - N/A   Clear
8:00 AM 62 °F 55 °F 72% 29.79 in 9 mi SSE 6.7 mph - -   Mostly Cloudy
8:00 AM 60.8 °F 55.4 °F 82% 29.77 in - SSE 5.8 mph - N/A   Clear
8:30 AM 62.6 °F 55.4 °F 77% 29.80 in 6.2 mi SSE 8.1 mph - N/A   Partly Cloudy
9:30 AM 62.6 °F 57.2 °F 82% 29.83 in 6.2 mi SE 12.7 mph - N/A   Mostly Cloudy
10:00 AM 64.4 °F 57.2 °F 77% 29.83 in 6.2 mi SE 13.8 mph - N/A   Mostly Cloudy
11:00 AM 68 °F 56 °F 58% 29.83 in 6 mi SE 17.9 mph - -   Partly Cloudy
11:00 AM 68.0 °F 57.2 °F 68% 29.83 in 6.2 mi SE 18.4 mph - N/A   Scattered Clouds
11:30 AM 68.0 °F 59.0 °F 73% 29.83 in 6.2 mi SE 20.7 mph - N/A   Partly Cloudy
12:30 PM 69.8 °F 57.2 °F 64% 29.83 in 6.2 mi SE 21.9 mph - N/A   Partly Cloudy
1:00 PM 71.6 °F 57.2 °F 60% 29.83 in 6.2 mi SSE 20.7 mph - N/A   Partly Cloudy
1:30 PM 71.6 °F 57.2 °F 60% 29.83 in 6.2 mi SSE 19.6 mph - N/A   Partly Cloudy
2:00 PM 71 °F 56 °F 48% 29.84 in 9 mi SSE 22.4 mph - -   Scattered Clouds
2:00 PM 71.6 °F 57.2 °F 60% 29.83 in 6.2 mi SSE 21.9 mph - N/A   Partly Cloudy
2:30 PM 71.6 °F 57.2 °F 60% 29.83 in 6.2 mi SSE 19.6 mph - N/A   Partly Cloudy
3:00 PM 71.6 °F 57.2 °F 60% 29.83 in 6.2 mi SSE 18.4 mph - N/A   Partly Cloudy
3:30 PM 69.8 °F 55.4 °F 60% 29.83 in 6.2 mi SSE 20.7 mph - N/A   Partly Cloudy
4:00 PM 68.0 °F 57.2 °F 68% 29.83 in 6.2 mi South 18.4 mph - N/A   Partly Cloudy
4:30 PM 68.0 °F 57.2 °F 68% 29.83 in 6.2 mi SSE 17.3 mph - N/A   Partly Cloudy
5:00 PM 67 °F 56 °F 59% 29.84 in 9 mi SSE 20.1 mph - -   Scattered Clouds
5:00 PM 68.0 °F 57.2 °F 68% 29.83 in 6.2 mi SSE 19.6 mph - N/A   Partly Cloudy
5:30 PM 66.2 °F 55.4 °F 68% 29.83 in 6.2 mi South 17.3 mph - N/A   Partly Cloudy
6:00 PM 64.4 °F 57.2 °F 77% 29.86 in 6.2 mi SSE 17.3 mph - N/A   Partly Cloudy
6:30 PM 62.6 °F 55.4 °F 77% 29.86 in 6.2 mi SE 13.8 mph - N/A   Partly Cloudy
7:00 PM 62.6 °F 55.4 °F 77% 29.86 in 6.2 mi SSE 10.4 mph - N/A   Partly Cloudy
7:30 PM 60.8 °F 55.4 °F 82% 29.89 in 6.2 mi SE 9.2 mph - N/A   Partly Cloudy
8:00 PM 60 °F 56 °F 81% 29.90 in 9 mi ESE 6.7 mph - -   Scattered Clouds
8:00 PM 59.0 °F 55.4 °F 88% 29.89 in - ESE 6.9 mph - N/A   Clear
8:30 PM 59.0 °F 55.4 °F 88% 29.92 in 6.2 mi ESE 5.8 mph - N/A   Partly Cloudy
9:00 PM 59.0 °F 55.4 °F 88% 29.92 in 6.2 mi ESE 4.6 mph - N/A   Scattered Clouds
9:30 PM 60.8 °F 57.2 °F 88% 29.92 in 6.2 mi East 4.6 mph - N/A   Mostly Cloudy
10:00 PM 60.8 °F 57.2 °F 88% 29.95 in 6.2 mi ESE 4.6 mph - N/A   Mostly Cloudy
10:30 PM 60.8 °F 57.2 °F 88% 29.95 in 6.2 mi SE 4.6 mph - N/A   Mostly Cloudy
11:00 PM 61 °F 57 °F 83% 29.97 in 6 mi SSE 4.5 mph - -   Mostly Cloudy
11:00 PM 60.8 °F 57.2 °F 88% 29.95 in 6.2 mi SSE 4.6 mph - N/A   Mostly Cloudy
11:30 PM 59.0 °F 57.2 °F 94% 29.98 in 3.1 mi Variable 2.3 mph - N/A Rain Light Rain